Weather History for China Lake, CA

Change the Weather History Date:

Saturday, October 23, 2010

  Actual Average Record
Temperature  
Mean Temperature 62 °F -  
Max Temperature 72 °F 73 °F 89 °F (2011)
Min Temperature 53 °F 48 °F 33 °F (1996)
Degree Days  
Heating Degree Days 3    
Growing Degree Days 12 (Base 50)    
Moisture  
Dew Point 46 °F    
Average Humidity 57    
Maximum Humidity 80    
Minimum Humidity 41    
Precipitation  
Precipitation 0.00 in - - ()
Sea Level Pressure  
Sea Level Pressure 29.93 in    
Wind  
Wind Speed 5 mph (SSE)    
Max Wind Speed 12 mph    
Max Gust Speed -    
Averages and records for this station are not official NWS values.
T = Trace of Precipitation, MM = Missing Value Source: NWS Daily Summary

Daily Weather History Graph

Daily Weather History Graph

Search for Another Location

Airport:

Trip Planner

Search our weather history database for the weather conditions in past years. The results will help you decide how hot, cold, wet, or windy it might be!

Date:

Astronomy

Oct. 23, 2010 Rise Set
Actual Time 7:04 AM PDT 6:05 PM PDT
Civil Twilight 6:38 AM PDT 6:31 PM PDT
Nautical Twilight 6:08 AM PDT 7:00 PM PDT
Astronomical Twilight 5:38 AM PDT 7:30 PM PDT
Moon 6:15 PM PDT (10/23) 7:45 AM PDT (10/23)
Length of Visible Light 11h 52m
Length of Day
11h 00m
Full, 100% of the Moon is Illuminated
Oct 23
Full
Oct 30
Last Quarter
Nov 5
New
Nov 13
First Quarter
Nov 21
Full

Hourly Weather History & Observations

Time (PDT) Temp. Dew Point Humidity Pressure Visibility Wind Dir Wind Speed Gust Speed Precip Events Conditions
12:56 AM 59.0 °F 43.0 °F 55% 29.89 in - South 9.2 mph - N/A   Partly Cloudy
1:56 AM 57.0 °F 45.0 °F 64% 29.90 in - SW 4.6 mph - N/A   Clear
2:56 AM 57.0 °F 44.1 °F 62% 29.89 in - Calm Calm - N/A   Partly Cloudy
3:56 AM 55.0 °F 46.0 °F 72% 29.89 in - Calm Calm - N/A   Clear
4:56 AM 54.0 °F 46.0 °F 75% 29.90 in - SSW 5.8 mph - N/A   Partly Cloudy
5:56 AM 54.0 °F 46.0 °F 75% 29.91 in - South 11.5 mph - N/A   Clear
6:56 AM 53.1 °F 46.9 °F 80% 29.93 in - NNW 8.1 mph - N/A   Clear
7:56 AM 54.0 °F 46.9 °F 77% 29.93 in - Calm Calm - N/A   Clear
8:56 AM 57.0 °F 46.9 °F 69% 29.96 in - NNW 4.6 mph - N/A   Clear
9:56 AM 62.1 °F 46.0 °F 56% 29.97 in - East 3.5 mph - N/A   Clear
10:56 AM 64.0 °F 46.0 °F 52% 29.97 in - Calm Calm - N/A   Clear
11:56 AM 66.9 °F 46.0 °F 47% 29.96 in - SE 4.6 mph - N/A   Clear
12:56 PM 66.9 °F 45.0 °F 45% 29.94 in - Calm Calm - N/A   Clear
1:56 PM 68.0 °F 45.0 °F 43% 29.93 in - ENE 4.6 mph - N/A   Clear
2:56 PM 70.0 °F 45.0 °F 41% 29.92 in - Variable 5.8 mph - N/A   Clear
3:56 PM 71.1 °F 46.0 °F 41% 29.92 in - Variable 3.5 mph - N/A   Clear
4:56 PM 70.0 °F 46.9 °F 44% 29.92 in - ENE 8.1 mph - N/A   Clear
5:56 PM 69.1 °F 46.0 °F 44% 29.92 in - ENE 9.2 mph - N/A   Clear
6:56 PM 66.9 °F 46.9 °F 49% 29.94 in - ENE 6.9 mph - N/A   Clear
7:56 PM 66.0 °F 48.9 °F 54% 29.95 in - SSE 4.6 mph - N/A   Partly Cloudy
8:56 PM 64.0 °F 48.9 °F 58% 29.96 in - WSW 4.6 mph - N/A   Clear
9:56 PM 63.0 °F 48.9 °F 60% 29.98 in - SSW 4.6 mph - N/A   Partly Cloudy
10:56 PM 62.1 °F 48.0 °F 60% 29.98 in - South 8.1 mph - N/A   Clear
11:56 PM 63.0 °F 46.9 °F 56% 29.96 in - South 10.4 mph - N/A   Clear